Probability
0 0 0 0 0 0 0 0 0 0 0 0 0 0 0 0 0 0 0 0 0 0 0 0 0 0 0 0 0 0 0 0 0 0 0 0 0 0
0 0 0 0 0 0 0 0 0 0 0 0 0 0 0 0 0 0 0 0 0 0 0 0 0 0 0 0 0 0 0 0 0 0 0 0 0 0
0 0 0 0 0 0 0 0 0 0 0 0 0 0 0 0 0 0 0 0 0 0 0 0 0 0 0 0 0 0 0 0 0 0 0 0 0 0
0 0 0 0 0 0 0 0 0 0 0 0 0 0 0 0 0 0 0 0 0 0 0 0 0 0 0 0 0 0 0 0 0 0 0 0 0 0
0 0 0 0 0 0 0 0 0 0 0 0 0 0 0 0 0 0 0 0 0 0 0 0 0 0 0 0 0 0 0 0 0 0 0 0 0 0
0 0 0 0 0 0 0 0 0 0 0 0 0 0 0 0 0 0 0 0 0 0 0 0 0 0 0 0 0 0 0 0 0 0 0 0 0 0
0 0 0 0 0 0 0 0 0 0 0 0 0 0 0 0 0 0 0 0 0 0 0 0 0 0 0 0 0 0 0 0 0 0 0 0 0 0
0 0 0 0 0 0 0 0 0 0 0 0 0 0 0 0 0 0 0 0 0 0 0 0 0 0 0 0 0 0 0 0 0 0 0 0 0 0
0 0 0 0 0 0 0 0 0 0 0 0 0 0 0 0 0 0 0 0 0 0 0 0 0 0 0 0 0 0 0 0 0 0 0 0 0 0
0 0 0 0 0 0 0 0 0 0 0 0 0 0 0 0 0 0 0 0 0 0 0 0 0 0 0 0 0 0 0 0 0 0 0 0 0 0
0 0 0 0 0 0 0 0 0 0 0 0 0 0 0 0 0 0 0 0 0 0 0 0 0 0 0 0 0 0 0 0 0 0 0 0 0 0
0 0 0 0 0 0 0 0 0 0 0 0 0 0 0 0 0 0 0 0 0 0 0 0 0 0 0 0 0 0 0 0 0 0 0 0 0 0
0 0 0 0 0 0 0 0 0 0 0 0 0 0 0 0 0 0 0 0 0 0 0 0 0 0 0 0 0 0 0 0 0 0 0 0 0 0
0 0 0 0 0 0 0 0 0 0 0 0 0 0 0 0 0 0 0 0 0 0 0 0 0 0 0 0 0 0 0 0 0 0 0 0 0 0
0 0 0 0 0 0 0 0 0 0 0 0 0 0 0 0 0 0 0 0 0 0 0 0 0 0 0 0 0 0 0 0 0 0 0 0 0 0
0 0 0 0 0 0 0 0 0 0 0 0 0 0 0 0 0 0 0 0 0 0 0 0 0 0 0 0 0 0 0 0 0 0 0 0 0 0
0 0 0 0 0 0 0 0 0 0 0 0 0 0 0 0 0 0 0 0 0 0 0 0 0 0 0 0 0 0 0 0 0 0 0 0 0 0
0 0 0 0 0 0 0 0 0 0 0 0 0 0 0 0 0 0 0 0 0 0 0 0 0 0 0 0 0 0 0 0 0 0 0 0 0 0
0 0 0 0 0 0 0 0 0 0 0 0 0 0 0 0 0 0 0 0 0 0 0 0 0 0 0 0 0 0 0 0 0 0 0 0 0 0
0 0 0 0 0 0 0 0 0 0 0 0 0 0 0 0 0 0 0 0 0 0 0 0 0 0 0 0 0 0 0 0 0 0 0 0 0 0
0 0 0 0 0 0 0 0 0 0 0 0 0 0 0 0 0 0 0 0 0 0 0 0 0 0 0 0 0 0 0 0 0 0 0 0 0 0
0 0 0 0 0 0 0 0 0 0 0 0 0 0 0 0 0 0 0 0 0 0 0 0 0 0 0 0 0 0 0 0 0 0 0 0 0 0
0 0 0 0 0 0 0 0 0 0 0 0 0 0 0 0 0 0 0 0 0 0 0 0 0 0 0 0 0 0 0 0 0 0 0 0 0 0
Wind_Speed
12 12 10 8 7 7 6 6 8 7 9 8 6 6 6 6 10 6 5 8 8 6 5 3 2 0 1 3 5 6 8 10 11 13 15 16 18 19
10 11 12 8 7 7 7 7 7 7 7 6 6 5 8 6 10 6 6 9 8 7 6 5 3 2 1 2 4 6 7 9 11 12 14 16 17 19
12 13 13 11 9 8 7 7 7 6 5 3 2 4 7 7 7 5 5 5 4 8 7 6 5 4 2 2 3 5 6 8 10 12 13 15 16 18
14 14 14 10 12 9 8 9 8 6 6 6 4 4 5 8 7 6 5 4 3 8 8 7 6 5 4 3 2 4 5 7 9 10 12 14 15 17
14 15 14 12 13 9 9 9 7 6 4 6 5 3 3 5 5 4 4 3 4 6 8 8 7 7 6 5 3 4 5 6 7 9 11 12 14 16
13 13 13 14 15 13 11 10 8 7 5 6 5 4 3 4 5 5 4 4 3 3 5 6 6 7 6 6 5 5 5 6 7 8 10 11 13 14
11 11 11 13 14 12 10 10 11 8 7 6 6 5 5 7 8 6 5 3 3 3 2 3 3 2 3 5 6 6 6 6 6 7 9 10 11 13
10 9 9 10 12 14 14 15 15 13 12 9 7 8 9 7 6 6 6 5 4 4 4 3 3 3 3 3 7 7 6 6 6 7 8 9 10 12
9 7 6 6 8 8 10 12 12 13 14 11 10 9 10 11 11 9 7 6 4 4 4 3 3 4 3 5 9 8 7 6 6 6 7 8 9 11
6 7 7 7 7 8 7 7 6 6 8 6 6 6 6 9 10 9 7 5 3 2 4 3 3 3 2 3 8 9 7 6 6 6 7 8 9 9
3 4 5 6 10 12 9 8 6 4 5 6 6 7 11 14 12 8 8 5 3 4 4 3 2 2 2 3 5 8 7 6 6 6 7 7 8 7
2 2 5 7 10 14 9 9 9 7 7 7 7 8 8 11 15 9 9 6 4 4 5 5 3 2 2 2 2 2 3 6 6 6 7 7 7 3
3 3 3 9 12 14 10 7 8 8 8 7 6 5 5 5 6 5 5 6 5 4 5 6 4 3 3 2 2 2 3 2 2 3 6 8 8 4
3 2 4 9 12 12 8 8 12 10 6 6 6 6 6 6 5 5 5 3 2 3 7 6 4 5 4 3 3 2 2 2 3 2 2 5 7 8
2 4 5 8 9 8 9 12 10 7 7 7 7 7 5 5 5 4 4 3 2 2 5 5 4 4 4 4 3 2 2 2 3 3 2 2 2 2
2 3 6 7 6 5 6 7 5 6 6 6 5 4 4 5 5 5 5 5 4 4 4 6 6 6 5 4 4 4 4 3 2 3 3 3 2 2
3 2 2 3 3 3 4 4 4 5 5 5 5 5 6 6 6 5 5 5 6 5 5 4 4 3 4 4 5 6 5 4 4 3 3 3 4 4
3 3 3 4 4 5 5 5 5 6 6 5 6 6 7 7 7 6 5 7 7 6 5 5 5 3 1 5 10 7 6 5 4 4 4 3 4 4
2 2 3 3 4 4 4 5 5 5 5 6 6 6 6 6 6 7 7 7 7 7 6 6 6 7 6 6 5 11 7 5 4 4 4 5 4 3
1 2 2 3 3 3 4 4 4 4 5 6 6 6 7 7 7 7 8 9 8 7 7 7 8 10 9 6 3 4 10 7 5 4 4 3 3 5
1 1 1 2 2 3 4 4 4 5 5 6 6 7 6 7 7 8 8 10 9 8 9 10 9 8 3 2 2 3 3 9 9 5 4 3 2 2
1 1 1 2 2 3 3 3 4 5 5 6 6 6 6 7 8 9 8 8 8 9 9 5 5 6 6 8 8 5 3 3 6 10 9 8 5 5
2 2 2 2 2 2 2 3 4 4 4 5 5 5 6 6 7 7 7 8 7 7 7 5 5 6 7 7 7 5 5 4 3 3 5 9 12 10
Wind_Direction
220 219 220 218 210 208 193 182 179 194 213 202 194 192 187 181 188 176 181 196 193 195 190 193 198 197 359 360 0 2 3 2 1 1 360 358 356 354
219 218 220 217 212 208 205 201 196 198 208 186 189 176 177 181 185 175 186 190 195 197 198 201 205 217 283 338 352 355 357 357 358 359 358 356 355 353
218 219 221 212 211 209 204 200 201 187 187 161 143 156 167 177 176 173 181 184 196 201 204 205 208 216 240 283 332 341 347 350 354 355 355 354 353 352
220 218 220 211 213 207 202 203 201 189 170 168 158 161 179 179 172 174 180 186 196 205 208 210 214 219 227 245 288 321 333 341 347 349 350 351 351 351
218 217 216 207 210 206 202 202 197 185 164 154 155 151 147 166 162 167 173 186 205 208 208 212 217 222 228 238 259 293 311 326 336 343 346 348 349 349
218 217 214 209 209 203 201 197 184 176 161 149 145 148 146 151 157 169 182 191 201 199 214 215 216 222 232 237 248 271 289 309 324 334 339 343 346 347
219 218 215 211 209 201 197 191 181 177 168 165 158 153 164 168 186 176 181 171 200 193 202 214 203 209 224 241 244 256 273 295 313 324 331 337 342 345
219 217 212 207 208 204 203 194 186 180 181 178 179 181 185 179 164 164 160 163 206 194 188 215 191 213 217 221 241 249 260 280 300 313 322 330 337 341
217 213 211 207 199 199 199 193 197 198 189 181 184 188 179 177 166 166 176 177 186 162 161 212 198 221 213 228 240 244 254 270 289 303 312 321 330 337
211 205 205 201 197 188 181 183 190 197 194 188 191 182 169 165 167 165 160 134 94 153 164 199 200 219 216 231 243 239 244 262 278 297 306 314 324 334
216 201 197 198 195 183 177 178 179 186 180 155 150 151 158 159 152 136 142 151 182 195 180 186 193 205 223 231 237 234 238 255 269 286 301 307 318 331
198 199 205 200 191 185 182 180 185 175 148 140 140 145 152 163 166 166 163 164 160 193 185 181 178 169 236 243 221 227 240 251 260 279 296 301 309 324
198 202 207 202 198 196 191 189 184 156 150 149 144 143 147 160 170 169 174 171 170 190 174 169 168 176 194 240 251 218 211 218 239 267 286 295 301 306
203 195 198 199 201 198 191 178 164 149 147 155 161 172 178 182 180 174 174 175 164 171 168 166 169 175 172 201 244 241 225 218 214 232 254 289 298 302
175 178 186 195 195 192 186 172 160 159 162 175 187 192 187 174 158 153 155 153 146 158 169 178 173 170 176 192 207 209 232 237 214 220 234 249 261 283
125 153 174 183 181 164 166 172 172 175 179 189 192 175 157 164 176 174 177 173 188 212 201 196 191 182 194 205 205 216 206 227 223 216 229 245 250 245
136 133 153 159 170 171 171 176 177 179 188 189 183 179 180 185 188 181 179 180 197 200 192 190 191 197 205 194 216 226 220 224 222 208 208 243 247 241
151 172 183 185 190 190 191 193 196 200 199 195 195 194 194 195 193 187 189 197 210 211 198 179 166 159 235 253 225 225 218 220 214 203 197 221 252 245
173 182 194 198 200 199 203 205 208 207 202 203 205 204 204 202 198 197 199 206 215 214 201 179 179 183 205 237 237 212 207 203 193 201 207 209 233 245
191 196 204 206 208 212 215 218 217 208 209 213 213 212 210 208 208 208 207 210 213 210 203 195 199 202 211 217 213 218 209 196 190 203 206 211 245 270
228 226 225 222 224 223 223 221 219 217 215 215 220 220 216 215 220 219 216 214 212 210 213 214 211 195 167 128 214 235 227 213 203 193 179 184 216 243
333 286 261 248 243 238 233 227 229 230 226 225 226 224 221 220 226 225 221 217 216 217 221 208 160 166 183 206 225 217 198 207 227 224 215 194 179 198
334 317 304 293 280 267 252 244 241 242 238 235 234 230 225 226 227 227 226 223 221 219 212 195 181 190 204 213 222 218 204 196 195 214 232 232 232 238